{"data":{"norad_id":59866,"epoch":"2026-09-21T07:16:42.273120Z","epoch_age_seconds":105085,"freshness":"FRESH","line1":"1 59866U 24098J   26264.30326705 -.00000884  00000+0 -22633-4 0  9994","line2":"2 59866  43.0028 235.5288 0000788 273.6507  86.4255 15.27571402131963","mean_motion":15.27571402,"eccentricity":7.88e-5,"inclination_deg":43.0028,"raan_deg":235.5288,"arg_perigee_deg":273.6507,"mean_anomaly_deg":86.4255,"bstar":-2.2633e-5,"rev_number":13196,"period_min":94.267279298019,"perigee_km":482.5341781724,"apogee_km":483.61550515865,"semimajor_km":6861.2118416655,"source":"CELESTRAK","updated_at":"2026-09-22T09:00:49.101849Z"}}